| time (UTC) | temp C | wind direction | speed KPH | gust KPH | rain 1hr cm | rain 24hr cm | rain mn cm | humidity % | barometer mb |
| 20260508050036 | 8 | 109 | 0.0 | 0.0 | 0.00 | 0.00 | 0.00 | 90 | 1013.3 |
| 20260508044546 | 8 | 109 | 0.0 | 0.0 | 0.00 | 0.00 | 0.00 | 90 | 1013.4 |
| 20260508043042 | 8 | 109 | 0.0 | 0.0 | 0.00 | 0.00 | 0.00 | 89 | 1013.4 |
| 20260508041536 | 8 | 109 | 0.0 | 0.0 | 0.00 | 0.00 | 0.00 | 89 | 1013.3 |
| 20260508040033 | 8 | 109 | 0.0 | 0.0 | 0.00 | 0.00 | 0.00 | 90 | 1013.3 |
| 20260508034541 | 8 | 109 | 0.0 | 0.0 | 0.00 | 0.00 | 0.00 | 90 | 1013.3 |
| 20260508033031 | 8 | 109 | 0.0 | 3.2 | 0.00 | 0.00 | 0.00 | 91 | 1013.3 |
| 20260508031530 | 8 | 111 | 0.0 | 3.2 | 0.00 | 0.00 | 0.00 | 91 | 1013.5 |
| 20260508030029 | 8 | 111 | 0.0 | 0.0 | 0.00 | 0.00 | 0.00 | 92 | 1013.4 |
| 20260508024534 | 8 | 111 | 0.0 | 1.6 | 0.00 | 0.00 | 0.00 | 92 | 1013.5 |
| 20260508023030 | 8 | 111 | 0.0 | 0.0 | 0.00 | 0.00 | 0.00 | 92 | 1013.4 |
| 20260508021526 | 8 | 111 | 0.0 | 3.2 | 0.00 | 0.00 | 0.00 | 92 | 1013.3 |
| 20260508020025 | 8 | 111 | 0.0 | 3.2 | 0.00 | 0.00 | 0.00 | 93 | 1013.2 |
| 20260508014525 | 8 | 103 | 0.0 | 0.0 | 0.00 | 0.00 | 0.00 | 94 | 1013.2 |
| 20260508013024 | 8 | 89 | 0.0 | 0.0 | 0.00 | 0.00 | 0.00 | 94 | 1013.3 |
| 20260508011533 | 8 | 55 | 0.0 | 0.0 | 0.00 | 0.00 | 0.00 | 94 | 1013.4 |
| 20260508010020 | 8 | 55 | 0.0 | 0.0 | 0.00 | 0.00 | 0.00 | 94 | 1013.5 |
| 20260508004525 | 8 | 325 | 0.0 | 0.0 | 0.00 | 0.00 | 0.00 | 94 | 1013.5 |
| 20260508003018 | 9 | 325 | 0.0 | 0.0 | 0.00 | 0.00 | 0.00 | 93 | 1013.5 |
| 20260508001517 | 9 | 325 | 0.0 | 0.0 | 0.00 | 0.00 | 0.00 | 93 | 1013.3 |
| 20260508000015 | 9 | 69 | 0.0 | 0.0 | 0.00 | 0.00 | 0.00 | 93 | 1013.4 |
| 20260507234519 | 9 | 69 | 0.0 | 0.0 | 0.00 | 0.00 | 0.00 | 93 | 1013.4 |
| 20260507233016 | 9 | 69 | 0.0 | 0.0 | 0.00 | 0.00 | 0.00 | 92 | 1013.5 |
| 20260507231516 | 9 | 75 | 0.0 | 0.0 | 0.00 | 0.00 | 0.00 | 91 | 1013.5 |
| 20260507230006 | 10 | 75 | 0.0 | 0.0 | 0.00 | 0.00 | 0.00 | 91 | 1013.4 |
| 20260507224507 | 9 | 75 | 0.0 | 0.0 | 0.00 | 0.00 | 0.00 | 91 | 1013.5 |
| 20260507223004 | 10 | 75 | 0.0 | 0.0 | 0.00 | 0.00 | 0.00 | 91 | 1013.5 |
| 20260507221509 | 10 | 75 | 0.0 | 0.0 | 0.00 | 0.00 | 0.00 | 90 | 1013.5 |
| 20260507220002 | 10 | 75 | 0.0 | 0.0 | 0.00 | 0.00 | 0.00 | 89 | 1013.4 |
| 20260507214503 | 10 | 75 | 0.0 | 0.0 | 0.00 | 0.00 | 0.00 | 89 | 1013.4 |
| 20260507213003 | 10 | 75 | 0.0 | 0.0 | 0.00 | 0.00 | 0.00 | 88 | 1013.5 |
| 20260507211505 | 10 | 75 | 0.0 | 0.0 | 0.00 | 0.00 | 0.00 | 87 | 1013.4 |
| 20260507210100 | 10 | 75 | 0.0 | 0.0 | 0.00 | 0.00 | 0.00 | 86 | 1013.2 |
| 20260507204605 | 10 | 75 | 0.0 | 0.0 | 0.00 | 0.00 | 0.00 | 85 | 1013.2 |
| 20260507203108 | 10 | 75 | 0.0 | 0.0 | 0.00 | 0.00 | 0.00 | 85 | 1013.1 |
| 20260507201605 | 10 | 74 | 0.0 | 0.0 | 0.00 | 0.00 | 0.00 | 84 | 1013.0 |
| 20260507200059 | 11 | 74 | 0.0 | 0.0 | 0.00 | 0.00 | 0.00 | 83 | 1012.9 |
| 20260507194559 | 11 | 74 | 0.0 | 0.0 | 0.00 | 0.00 | 0.00 | 84 | 1012.8 |
| 20260507193102 | 11 | 74 | 0.0 | 0.0 | 0.00 | 0.00 | 0.00 | 84 | 1012.7 |
| 20260507191558 | 11 | 74 | 0.0 | 3.2 | 0.00 | 0.00 | 0.00 | 83 | 1012.6 |
| 20260507190057 | 11 | 16 | 1.6 | 4.8 | 0.00 | 0.00 | 0.00 | 81 | 1012.6 |
| 20260507184557 | 12 | 346 | 1.6 | 4.8 | 0.00 | 0.00 | 0.00 | 80 | 1012.6 |
| 20260507183104 | 12 | 326 | 0.0 | 8.0 | 0.00 | 0.00 | 0.00 | 79 | 1012.6 |
| 20260507181556 | 12 | 327 | 1.6 | 11.3 | 0.00 | 0.00 | 0.00 | 77 | 1012.4 |
| 20260507180056 | 12 | 169 | 1.6 | 11.3 | 0.00 | 0.00 | 0.00 | 76 | 1012.2 |
| 20260507174606 | 12 | 160 | 4.8 | 9.7 | 0.00 | 0.00 | 0.00 | 76 | 1012.2 |
| 20260507173100 | 13 | 155 | 3.2 | 9.7 | 0.00 | 0.00 | 0.00 | 76 | 1012.2 |
| 20260507171610 | 13 | 159 | 6.4 | 11.3 | 0.00 | 0.00 | 0.00 | 76 | 1012.3 |
| 20260507170056 | 12 | 172 | 8.0 | 16.1 | 0.00 | 0.00 | 0.00 | 75 | 1012.3 |
| 20260507164605 | 12 | 164 | 11.3 | 16.1 | 0.00 | 0.00 | 0.00 | 74 | 1012.4 |
| 20260507163052 | 13 | 159 | 8.0 | 16.1 | 0.00 | 0.00 | 0.00 | 74 | 1012.4 |
| 20260507161553 | 14 | 176 | 9.7 | 16.1 | 0.00 | 0.00 | 0.00 | 72 | 1012.1 |
| 20260507160050 | 13 | 154 | 9.7 | 14.5 | 0.00 | 0.00 | 0.00 | 73 | 1012.1 |
| 20260507154548 | 13 | 209 | 4.8 | 14.5 | 0.00 | 0.00 | 0.00 | 74 | 1012.2 |
| 20260507153049 | 13 | 161 | 8.0 | 16.1 | 0.00 | 0.00 | 0.00 | 73 | 1012.3 |
| 20260507151545 | 13 | 133 | 6.4 | 19.3 | 0.00 | 0.00 | 0.00 | 73 | 1012.4 |
| 20260507150045 | 13 | 136 | 4.8 | 16.1 | 0.00 | 0.00 | 0.00 | 73 | 1012.5 |
| 20260507144544 | 13 | 166 | 6.4 | 14.5 | 0.00 | 0.00 | 0.00 | 73 | 1012.6 |
| 20260507143045 | 13 | 176 | 8.0 | 14.5 | 0.00 | 0.00 | 0.00 | 72 | 1012.6 |
| 20260507141548 | 13 | 170 | 8.0 | 12.9 | 0.00 | 0.00 | 0.00 | 73 | 1012.8 |
| 20260507140042 | 13 | 147 | 3.2 | 16.1 | 0.00 | 0.00 | 0.00 | 71 | 1012.8 |
| 20260507134551 | 13 | 138 | 8.0 | 17.7 | 0.00 | 0.00 | 0.00 | 70 | 1012.5 |
| 20260507133040 | 13 | 155 | 11.3 | 17.7 | 0.00 | 0.00 | 0.00 | 69 | 1012.6 |
| 20260507131540 | 13 | 171 | 4.8 | 8.0 | 0.00 | 0.00 | 0.00 | 72 | 1012.7 |
| 20260507130041 | 13 | 182 | 8.0 | 16.1 | 0.00 | 0.00 | 0.00 | 72 | 1012.7 |
| 20260507124537 | 13 | 165 | 8.0 | 14.5 | 0.00 | 0.00 | 0.00 | 72 | 1012.7 |
| 20260507123037 | 13 | 175 | 6.4 | 11.3 | 0.00 | 0.00 | 0.00 | 73 | 1012.9 |
| 20260507121535 | 13 | 195 | 8.0 | 12.9 | 0.00 | 0.00 | 0.00 | 71 | 1012.9 |
| 20260507120034 | 13 | 181 | 4.8 | 9.7 | 0.00 | 0.00 | 0.00 | 68 | 1013.1 |
| 20260507114536 | 13 | 100 | 3.2 | 12.9 | 0.00 | 0.00 | 0.00 | 71 | 1013.1 |
| 20260507113031 | 13 | 105 | 0.0 | 16.1 | 0.00 | 0.00 | 0.00 | 73 | 1013.1 |
| 20260507111531 | 13 | 100 | 9.7 | 16.1 | 0.00 | 0.00 | 0.00 | 76 | 1013.2 |
| 20260507110033 | 12 | 178 | 0.0 | 11.3 | 0.00 | 0.00 | 0.00 | 77 | 1013.5 |
| 20260507104526 | 12 | 171 | 0.0 | 12.9 | 0.00 | 0.00 | 0.00 | 80 | 1013.6 |
| 20260507103027 | 11 | 45 | 3.2 | 6.4 | 0.00 | 0.00 | 0.00 | 83 | 1013.7 |
| 20260507101520 | 11 | 89 | 4.8 | 11.3 | 0.00 | 0.00 | 0.00 | 85 | 1014.0 |
| 20260507100012 | 10 | 121 | 3.2 | 11.3 | 0.00 | 0.00 | 0.00 | 87 | 1014.0 |
| 20260507094509 | 9 | 113 | 1.6 | 6.4 | 0.00 | 0.00 | 0.00 | 88 | 1013.9 |
| 20260507093005 | 8 | 109 | 1.6 | 9.7 | 0.00 | 0.00 | 0.00 | 89 | 1014.0 |
| 20260507091502 | 8 | 113 | 3.2 | 8.0 | 0.00 | 0.00 | 0.00 | 90 | 1014.0 |
| 20260507090108 | 8 | 120 | 1.6 | 6.4 | 0.00 | 0.00 | 0.00 | 90 | 1014.1 |
| 20260507084559 | 8 | 107 | 0.0 | 6.4 | 0.00 | 0.00 | 0.00 | 91 | 1014.0 |
| 20260507083056 | 7 | 98 | 0.0 | 4.8 | 0.00 | 0.00 | 0.00 | 92 | 1014.2 |
| 20260507081556 | 7 | 113 | 0.0 | 4.8 | 0.00 | 0.00 | 0.00 | 92 | 1014.1 |
| 20260507080054 | 7 | 100 | 0.0 | 4.8 | 0.00 | 0.00 | 0.00 | 92 | 1014.0 |
| 20260507074554 | 7 | 95 | 1.6 | 4.8 | 0.00 | 0.00 | 0.00 | 93 | 1014.2 |
| 20260507073053 | 6 | 94 | 1.6 | 4.8 | 0.00 | 0.00 | 0.00 | 93 | 1014.0 |
| 20260507071556 | 6 | 94 | 0.0 | 4.8 | 0.00 | 0.00 | 0.00 | 93 | 1014.0 |
| 20260507070100 | 6 | 96 | 3.2 | 6.4 | 0.00 | 0.00 | 0.00 | 93 | 1013.7 |
| 20260507064549 | 6 | 105 | 0.0 | 4.8 | 0.00 | 0.00 | 0.00 | 93 | 1013.6 |
| 20260507063049 | 6 | 94 | 0.0 | 4.8 | 0.00 | 0.00 | 0.00 | 94 | 1013.6 |
| 20260507061544 | 6 | 94 | 0.0 | 3.2 | 0.00 | 0.00 | 0.00 | 94 | 1013.6 |
| 20260507060101 | 6 | 92 | 1.6 | 4.8 | 0.00 | 0.00 | 0.00 | 93 | 1013.5 |
| 20260507054546 | 6 | 91 | 0.0 | 3.2 | 0.00 | 0.00 | 0.00 | 93 | 1013.5 |
| 20260507053049 | 6 | 90 | 0.0 | 3.2 | 0.00 | 0.00 | 0.00 | 93 | 1013.4 |
| 20260507051542 | 6 | 90 | 1.6 | 6.4 | 0.00 | 0.00 | 0.00 | 93 | 1013.5 |